Regional Weather Roundup
Issued by NWS

Home | Current Version | Previous Version | Text Only | Print | Product List | Glossary Off
Versions: 1 2 3 4 5 6 7 8 9 10 11 12 13 14 15 16 17 18 19 20 21 22 23 24 25 26 27 28 29 30 31 32 33 34 35 36 37 38 39 40 41 42 43 44 45 46 47 48 49 50

000
ASUS45 KCYS 120810
RWRWY

WYOMING REGIONAL WEATHER ROUNDUP
NATIONAL WEATHER SERVICE CHEYENNE WY
200 AM MDT SAT JUL 12 2014

NOTE:  "FAIR" INDICATES FEW OR NO CLOUDS BELOW 12,000 FEET
WITH NO SIGNIFICANT WEATHER AND/OR OBSTRUCTIONS TO VISIBILITY.

WYZ001-120900-
YELLOWSTONE NATIONAL PARK

CITY           SKY/WX    TMP DP  RH WIND       PRES   REMARKS
LK YELLOWSTONE   N/A     46  44  93 CALM      30.43R
W YELLOWSTONE  NOT AVBL

$$
WYZ002>013-054>058-071-098>099-120900-
NORTHERN WYOMING

CITY           SKY/WX    TMP DP  RH WIND       PRES   REMARKS
JACKSON        CLEAR     54  52  94 NW6       30.33R
CODY           MOCLDY    63  52  67 W3        30.22S
GREYBULL       MOCLDY    66  57  72 VRB5      30.15R
WORLAND        MOCLDY    67  53  61 SE7       30.16F
SHERIDAN       PTCLDY    59  56  89 SW5       30.12F
BUFFALO        PTCLDY    69  43  38 S13       30.18F
GILLETTE       CLOUDY    61  58  90 S5        30.18F
HULETT         FAIR      64  55  72 MISG      30.19
NEWCASTLE      FAIR      61  59  94 SE7       30.21

$$
WYZ014>020-022>026-101>103-120900-
CENTRAL WYOMING

CITY           SKY/WX    TMP DP  RH WIND       PRES   REMARKS
BIG PINEY      PTCLDY    55  49  80 SW6       30.35R
PINEDALE       MOSUNNY   54  48  82 S3        30.35S
DUBOIS         FAIR      50  46  87 NW10      30.36R
LANDER         CLOUDY    59  58  96 CALM      30.27S
RIVERTON       CLOUDY    60  59  96 SW6       30.27F
CASPER         CLOUDY    61  54  77 E7        30.23F
DOUGLAS        CLOUDY    62  57  83 CALM      30.22F

$$
WYZ021-027>030-104>119-120900-
SOUTHERN WYOMING

CITY           SKY/WX    TMP DP  RH WIND       PRES   REMARKS
EVANSTON       CLEAR     59  53  80 NE3       30.33R
KEMMERER       CLOUDY    57  50  77 E5        30.36S
FORT BRIDGER   CLOUDY    58  54  86 SE9       30.36S
ROCK SPRINGS   CLOUDY    58  51  78 E5        30.32S
DIXON          RAIN      61  58  88 W12       30.35R
RAWLINS        CLOUDY    59  55  87 NE7       30.31S
SARATOGA       FAIR      57  54  88 S3        30.31F
LARAMIE        CLOUDY    59  56  89 S12       30.34S
CHEYENNE       CLOUDY    61  59  93 N6        30.27R
TORRINGTON     CLOUDY    63  61  93 N5        30.17F

$$



USA.gov is the U.S. government's official web portal to all federal, state and local government web resources and services.